RH
53 49 49 52 56 58 56 57 61 58 61 66 64 64 65 61 67 72 76 88 92 92 95 98 96 91 91 88 89 93 90 97 94 81 82 78 78 77 76 83 93 93 97 77
51 53 58 60 58 61 62 65 66 64 66 68 69 69 67 72 73 74 77 80 91 90 96 97 92 92 90 94 97 98 97 97 97 96 92 82 77 73 77 78 93 94 96 80
55 59 59 58 60 65 68 72 71 68 68 68 75 75 76 72 72 74 75 78 86 89 90 96 95 93 93 92 96 99 98 97 93 87 87 86 86 84 80 78 95 87 83 94
61 61 58 59 63 70 74 75 72 71 70 73 75 80 79 77 80 80 81 77 77 87 89 90 94 94 95 94 95 97 98 96 96 92 95 98 96 97 94 86 85 95 97 98
60 61 63 66 69 75 78 80 79 78 75 78 80 82 78 83 86 89 85 80 79 86 91 96 91 97 98 96 94 98 99 96 97 96 97 98 96 96 97 97 96 97 97 97
60 62 65 70 74 77 78 78 80 84 75 81 82 81 85 85 93 91 87 86 83 81 81 87 90 92 96 97 97 97 98 98 98 94 97 97 96 97 97 97 97 97 98 98
55 58 63 72 77 81 80 77 84 87 79 84 85 85 86 88 92 95 94 93 91 86 89 87 84 89 93 97 97 96 95 96 96 95 98 97 96 96 98 97 98 98 98 98
54 56 60 64 70 75 80 82 85 87 84 84 84 85 85 88 91 94 97 97 97 95 95 94 90 89 92 94 94 93 92 97 98 97 98 99 97 96 98 98 99 99 99 99
48 49 51 54 59 68 74 79 83 88 93 90 86 89 89 92 95 96 95 96 97 97 97 97 97 97 94 95 94 81 91 96 97 97 98 99 96 96 97 98 99 99 98 97
40 42 44 48 51 56 66 77 85 92 96 95 94 95 96 96 97 97 97 97 97 97 97 97 97 97 97 97 97 96 95 97 98 98 99 100 99 93 92 100 99 97 95 97
34 37 41 45 53 59 67 75 84 92 97 98 97 97 97 97 97 97 97 97 95 96 97 97 97 97 98 97 99 99 98 99 99 97 99 100 98 92 93 99 99 98 95 92
28 30 32 36 41 47 54 61 70 79 89 96 97 97 97 97 97 97 97 97 98 98 98 97 97 97 98 99 99 95 97 99 99 99 99 99 91 99 98 95 90 82 84 83
15 16 22 24 30 40 47 56 64 70 80 87 93 94 94 96 97 97 97 97 98 98 98 98 98 98 98 98 99 96 99 89 90 90 96 85 76 88 87 76 73 72 69 67
15 18 19 21 27 36 48 58 71 75 78 78 74 74 72 69 65 64 64 67 76 85 89 93 96 96 91 96 92 86 83 76 75 66 63 53 61 54 53 53 56 55 54 54
6 9 13 22 29 30 39 55 64 75 73 63 59 55 55 53 49 45 43 41 40 41 44 51 60 62 60 53 52 55 52 56 55 53 46 54 49 46 51 52 51 54 53 49
8 8 11 14 14 25 34 34 40 39 35 27 31 34 30 27 24 21 19 20 22 21 29 38 44 51 49 43 59 50 51 51 49 51 51 52 50 52 54 53 54 53 56 57
13 12 11 10 9 9 9 12 12 13 17 22 30 27 24 24 25 24 24 22 23 24 33 42 45 42 40 49 57 47 48 49 46 50 53 48 50 53 55 56 57 56 57 60
14 14 14 13 12 13 14 16 15 15 15 18 31 32 28 25 25 26 27 28 26 33 37 41 44 41 39 51 51 48 47 47 46 50 54 56 56 59 59 62 62 62 62 63
12 12 12 13 12 12 14 14 14 14 15 26 32 39 39 29 29 29 30 32 37 33 41 43 47 50 49 50 55 48 50 53 53 51 54 58 61 63 64 66 66 66 66 67
13 13 14 15 17 16 16 16 17 17 21 29 36 36 37 33 33 33 36 37 44 49 43 45 52 55 50 56 57 47 47 53 55 55 54 59 60 63 65 67 69 68 70 70
15 16 17 18 18 20 20 24 29 32 38 40 41 39 40 40 42 42 40 46 49 56 51 54 58 61 59 59 51 47 51 55 57 57 60 65 66 64 65 67 70 70 71 73
17 18 19 21 22 24 30 41 41 44 50 49 47 46 45 46 49 49 47 55 56 61 56 62 60 59 61 56 46 46 49 51 53 56 57 62 66 67 67 69 72 75 76 76
19 20 22 29 31 38 50 53 52 56 54 53 52 52 51 52 52 56 60 58 66 62 68 66 66 65 56 49 47 47 49 51 53 55 56 60 66 67 68 69 74 79 83 88
21 27 37 42 49 53 56 57 56 54 54 54 55 56 55 55 59 59 59 63 64 72 75 75 71 69 60 51 49 49 49 51 54 56 57 58 63 67 70 72 75 80 85 90
28 36 49 54 55 56 56 56 57 58 57 57 58 59 63 64 68 69 70 75 79 80 84 84 82 74 67 62 56 52 52 52 54 57 59 61 62 67 70 75 77 81 87 91
39 46 50 52 53 56 56 57 57 58 59 62 64 70 70 75 82 80 85 87 87 86 91 89 86 80 74 69 63 58 54 53 55 57 60 62 63 67 70 75 79 80 83 89
44 49 48 50 51 53 55 56 58 59 59 62 70 77 84 84 90 94 95 97 97 98 98 96 90 87 79 74 69 66 62 59 56 56 58 61 63 67 71 73 77 81 83 86